Regional Weather Roundup
Issued by NWS Columbia, SC

Home | Current Version | Previous Version | Text Only | Print | Product List | Glossary On
Versions: 1 2 3 4 5 6 7 8 9 10 11 12 13 14 15 16 17 18 19 20 21 22 23 24 25 26 27 28 29 30 31 32 33 34 35 36 37 38 39 40 41 42 43 44 45 46 47 48 49 50
000
ASUS42 KCAE 070210
RWRCAE
REGIONAL WEATHER ROUNDUP
NATIONAL WEATHER SERVICE COLUMBIA SC
900 PM EST SAT FEB 06 2016

NOTE: "FAIR" INDICATES FEW OR NO CLOUDS BELOW 12,000 FEET WITH NO
SIGNIFICANT WEATHER AND/OR OBSTRUCTIONS TO VISIBILITY.

NOT ALL STATIONS ARE QUALITY CONTROLLED BY THE NATIONAL
WEATHER SERVICE. USE DATA WITH CAUTION...ESPECIALLY
DEWPOINT OBSERVATIONS.

SCZ001>056-GAZ040-063>065-077-070300-
...UPSTATE SOUTH CAROLINA...

CITY           SKY/WX    TMP DP  RH WIND       PRES   REMARKS
ANDERSON       CLOUDY    45  21  38 CALM      30.24S
LIBERTY        MOCLDY    41  24  52 CALM      30.24R
SPARTANBURG    CLOUDY    43  16  33 E5        30.23F
CLEMSON        CLOUDY    46  19  34 CALM      30.25S
GREENVILLE     CLOUDY    45  16  31 E5        30.24F
GREENWOOD      CLOUDY    45  21  38 N5        30.25F
GREER          CLOUDY    43  19  38 NE5       30.23F
ROCK HILL      CLOUDY    45  17  32 NE3       30.25F
CHESTER        CLOUDY    41  23  48 NE6       30.24F
LAURENS        CLOUDY    43  23  45 NE6       30.23F


...CENTRAL SOUTH CAROLINA...

CITY           SKY/WX    TMP DP  RH WIND       PRES   REMARKS
COLUMBIA APT   CLOUDY    49  24  37 NE9       30.21F
COLUMBIA OWENS CLOUDY    48  25  40 VRB6      30.22F
MCENTIRE ANGB  CLOUDY    43  31  62 E6        30.21F
ORANGEBURG     CLOUDY    44  32  62 NE8       30.22F
SUMTER SHAW    CLOUDY    43  31  63 NE15      30.19F
NEWBERRY       CLOUDY    45  25  45 CALM      30.27R
BARNWELL       CLOUDY    43  39  87 E7        30.22F
MANNING        DRIZZLE   41  32  70 N7        30.23F
CAMDEN         MOCLDY    46  46 100 NE7       30.23F
LANCASTER      CLOUDY    45  19  36 N5        30.25F
WINNSBORO      CLOUDY    45  25  45 NE5       30.21F


...EASTERN AND COASTAL SOUTH CAROLINA...

CITY           SKY/WX    TMP DP  RH WIND       PRES   REMARKS
MYRTLE BEACH   CLOUDY    45  28  53 N12       30.21F
N MYRTLE BCH   LGT RAIN  44  32  62 N10       30.19F
CONWAY         RAIN      43  32  65 N7        30.21F
MARION         LGT RAIN  45  30  57 NE7       30.24F
HARTSVILLE     CLOUDY    45  28  53 NE6       30.24F
FLORENCE       LGT RAIN  44  32  62 N5        30.25F
DARLINGTON     CLOUDY    46  27  46 NE6       30.26F
CHARLESTON APT LGT RAIN  43  36  76 NE14      30.18F
MOUNT PLEASANT CLOUDY    43  39  87 N6        30.19F
WALTERBORO     RAIN      43  39  87 CALM      30.22R
BEAUFORT       RAIN      43  39  86 N15       30.20S FOG


...EASTERN GEORGIA...

CITY           SKY/WX    TMP DP  RH WIND       PRES   REMARKS
AUGUSTA BUSH F LGT RAIN  42  36  79 E3        30.24S
AUGUSTA DANIEL CLOUDY    45  30  55 SE6       30.23F
THOMSON        CLOUDY    47  37  67 CALM      30.26F
WASHINGTON     FAIR      46  30  53 CALM      30.22F
CLAXTON        DRIZZLE   41  40  96 N8        30.21F
SYLVANIA       CLOUDY    42  39  92 NE6       30.23F
STATESBORO     CLOUDY    44  41  90 NE7       30.22F
SAVANNAH       RAIN      41  38  89 N12       30.19S FOG


...SOUTHERN NORTH CAROLINA...

CITY           SKY/WX    TMP DP  RH WIND       PRES   REMARKS
CHARLOTTE      CLOUDY    46  14  27 E6        30.26F
MONROE         CLOUDY    43  21  41 NE7       30.25F
WADESBORO      CLOUDY    43  28  54 CALM      30.26F
ROCKINGHAM     CLOUDY    44  25  47 NE3       30.25F
RUTHERFORDTON  CLOUDY    40  20  45 CALM      30.26S
ASHEVILLE      CLEAR     34  12  40 NW8       30.23S WCI  27

$$



USA.gov is the U.S. government's official web portal to all federal, state and local government web resources and services.